Location: Newark
(49.2191°N, 12.6671°E)
Time: 14:59:28
(UTC+00:00)

Transit 4A - Pass Details

Date: 02 February 2020
Orbit: 872 x 973 km, 66.8° (Epoch: 22 February)

Event Time Altitude Azimuth Distance (km) Brightness Sun altitude
Rises 02:03:38 0° 147° (SSE) 3,533 - -44.3°
Exits shadow 02:08:37 10° 110° (ESE) 2,604 10.6 -43.6°
Reaches altitude 10° 02:09:22 10° 103° (ESE) 2,568 10.6 -43.5°
Maximum altitude 02:09:43 10° 100° (E) 2,563 10.6 -43.5°
Drops below altitude 10° 02:10:04 10° 96° (E) 2,566 10.6 -43.4°
Sets 02:15:42 0° 53° (NE) 3,490 11.7 -42.6°
